User: anonymous   Login
Location: Unspecified
(0.0000°N, 0.0000°E)
Time: 15:31:29
(UTC+00:00)
Language:

USA 229 - Orbit

View from above orbital plane
View from above orbital plane
View from above satellite
View from above satellite

Ground track
Ground track

The orbit data is extracted from the following two-line orbital elements,

1 37386U 11014A   24106.02038582 0.00000000  00000-0  00000-0 0    08
2 37386  63.4541 145.6417 0301241 356.0054   3.8037 13.40906735    03
Epoch (UTC): 15 April 2024 00:29:21
Eccentricity: 0.0301241
inclination: 63.4541°
perigee height: 880 km
apogee height: 1331 km
right ascension of ascending node: 145.6417°
argument of perigee: 356.0054°
revolutions per day: 13.40906735
mean anomaly at epoch: 3.8037°
orbit number at epoch: 0

The dashed part of the orbit path shows where the satellite is in the earth's shadow,  

DLR